TimeCST,TemperatureF,Dew PointF,Humidity,Sea Level PressureIn,VisibilityMPH,Wind Direction,Wind SpeedMPH,Gust SpeedMPH,PrecipitationIn,Events,Conditions,WindDirDegrees,DateUTC
12:15 AM,12.2,10.4,92,30.30,10.0,WSW,3.5,-,N/A,,Partly Cloudy,250,2011-12-02 06:15:00
12:35 AM,10.4,6.8,85,30.29,10.0,WSW,3.5,-,N/A,,Clear,240,2011-12-02 06:35:00
12:55 AM,10.4,10.4,100,30.29,10.0,SW,3.5,-,N/A,,Clear,230,2011-12-02 06:55:00
1:15 AM,10.4,8.6,92,30.29,10.0,WSW,4.6,-,N/A,,Clear,240,2011-12-02 07:15:00
1:35 AM,8.6,5.0,85,30.29,10.0,WSW,4.6,-,N/A,,Clear,240,2011-12-02 07:35:00
2:55 AM,6.8,3.2,85,30.28,10.0,Calm,Calm,-,N/A,,Clear,0,2011-12-02 08:55:00
3:15 AM,6.8,3.2,85,30.28,10.0,Calm,Calm,-,N/A,,Clear,0,2011-12-02 09:15:00
3:35 AM,5.0,3.2,92,30.28,10.0,Calm,Calm,-,N/A,,Clear,0,2011-12-02 09:35:00
4:15 AM,5.0,1.4,85,30.26,10.0,Calm,Calm,-,N/A,,Clear,0,2011-12-02 10:15:00
4:35 AM,5.0,3.2,92,30.27,10.0,Calm,Calm,-,N/A,,Clear,0,2011-12-02 10:35:00
5:15 AM,8.6,6.8,92,30.27,10.0,SW,5.8,-,N/A,,Clear,220,2011-12-02 11:15:00
5:35 AM,10.4,3.2,73,30.26,10.0,SSW,4.6,-,N/A,,Clear,210,2011-12-02 11:35:00
5:55 AM,10.4,5.0,79,30.25,10.0,SSW,5.8,-,N/A,,Clear,200,2011-12-02 11:55:00
6:15 AM,12.2,6.8,79,30.25,10.0,SSW,5.8,-,N/A,,Clear,200,2011-12-02 12:15:00
6:35 AM,12.2,6.8,79,30.26,10.0,SSW,6.9,-,N/A,,Clear,210,2011-12-02 12:35:00
6:55 AM,12.2,3.2,67,30.25,10.0,SW,5.8,-,N/A,,Clear,220,2011-12-02 12:55:00
7:15 AM,12.2,6.8,79,30.25,10.0,SW,6.9,-,N/A,,Clear,220,2011-12-02 13:15:00
7:35 AM,12.2,5.0,73,30.24,10.0,SSW,9.2,-,N/A,,Clear,210,2011-12-02 13:35:00
7:55 AM,12.2,5.0,73,30.25,10.0,SW,10.4,-,N/A,,Clear,220,2011-12-02 13:55:00
8:15 AM,14.0,5.0,67,30.24,10.0,SSW,9.2,-,N/A,,Clear,210,2011-12-02 14:15:00
9:15 AM,17.6,6.8,63,30.24,10.0,SW,9.2,-,N/A,,Clear,220,2011-12-02 15:15:00
9:35 AM,17.6,6.8,63,30.25,10.0,SSW,9.2,-,N/A,,Clear,200,2011-12-02 15:35:00
9:55 AM,19.4,8.6,63,30.24,10.0,SSW,8.1,-,N/A,,Clear,200,2011-12-02 15:55:00
10:15 AM,19.4,6.8,58,30.24,10.0,SSW,11.5,-,N/A,,Clear,210,2011-12-02 16:15:00
10:35 AM,19.4,8.6,63,30.21,10.0,SSW,8.1,16.1,N/A,,Clear,200,2011-12-02 16:35:00
10:55 AM,21.2,8.6,58,30.20,10.0,South,6.9,-,N/A,,Clear,170,2011-12-02 16:55:00
11:15 AM,21.2,8.6,58,30.19,10.0,South,5.8,-,N/A,,Clear,190,2011-12-02 17:15:00
11:35 AM,23.0,10.4,59,30.18,10.0,SSW,12.7,21.9,N/A,,Clear,200,2011-12-02 17:35:00
11:55 AM,24.8,8.6,50,30.17,10.0,South,12.7,18.4,N/A,,Clear,190,2011-12-02 17:55:00
12:15 PM,24.8,10.4,54,30.16,10.0,South,12.7,20.7,N/A,,Clear,180,2011-12-02 18:15:00
12:35 PM,26.6,10.4,51,30.16,10.0,South,12.7,21.9,N/A,,Clear,190,2011-12-02 18:35:00
12:55 PM,26.6,10.4,51,30.16,10.0,SSW,13.8,18.4,N/A,,Clear,200,2011-12-02 18:55:00
1:15 PM,26.6,12.2,55,30.16,10.0,South,10.4,18.4,N/A,,Clear,190,2011-12-02 19:15:00
1:35 PM,28.4,10.4,47,30.15,10.0,South,15.0,20.7,N/A,,Clear,180,2011-12-02 19:35:00
1:55 PM,28.4,12.2,51,30.15,10.0,SSW,12.7,21.9,N/A,,Clear,210,2011-12-02 19:55:00
2:15 PM,28.4,10.4,47,30.14,10.0,South,12.7,19.6,N/A,,Clear,180,2011-12-02 20:15:00
2:35 PM,28.4,10.4,47,30.13,10.0,SSW,13.8,21.9,N/A,,Clear,200,2011-12-02 20:35:00
2:55 PM,28.4,10.4,47,30.13,10.0,South,11.5,21.9,N/A,,Clear,190,2011-12-02 20:55:00
3:15 PM,28.4,10.4,47,30.12,10.0,South,9.2,20.7,N/A,,Clear,190,2011-12-02 21:15:00
3:35 PM,28.4,8.6,43,30.11,10.0,South,13.8,23.0,N/A,,Clear,190,2011-12-02 21:35:00
4:15 PM,26.6,10.4,51,30.09,10.0,South,12.7,21.9,N/A,,Clear,190,2011-12-02 22:15:00
4:35 PM,26.6,10.4,51,30.08,10.0,South,9.2,21.9,N/A,,Clear,190,2011-12-02 22:35:00
4:55 PM,26.6,10.4,51,30.08,10.0,South,9.2,17.3,N/A,,Clear,180,2011-12-02 22:55:00
5:15 PM,26.6,10.4,51,30.08,10.0,South,11.5,24.2,N/A,,Clear,170,2011-12-02 23:15:00
5:35 PM,26.6,12.2,55,30.07,10.0,South,11.5,21.9,N/A,,Clear,190,2011-12-02 23:35:00
5:55 PM,26.6,12.2,55,30.07,10.0,South,17.3,26.5,N/A,,Clear,180,2011-12-02 23:55:00
6:15 PM,26.6,12.2,55,30.06,10.0,South,13.8,25.3,N/A,,Clear,180,2011-12-03 00:15:00
6:35 PM,26.6,10.4,51,30.06,10.0,South,15.0,26.5,N/A,,Clear,180,2011-12-03 00:35:00
7:35 PM,26.6,12.2,55,30.04,10.0,South,15.0,33.4,N/A,,Clear,180,2011-12-03 01:35:00
7:55 PM,26.6,12.2,55,30.03,10.0,South,25.3,35.7,N/A,,Clear,180,2011-12-03 01:55:00
8:35 PM,26.6,14.0,59,30.05,10.0,South,18.4,33.4,N/A,,Clear,190,2011-12-03 02:35:00
8:55 PM,26.6,14.0,59,30.05,10.0,South,18.4,31.1,N/A,,Clear,190,2011-12-03 02:55:00
9:15 PM,26.6,12.2,55,30.05,10.0,South,13.8,25.3,N/A,,Clear,190,2011-12-03 03:15:00
9:35 PM,26.6,14.0,59,30.05,10.0,South,13.8,21.9,N/A,,Clear,190,2011-12-03 03:35:00
9:55 PM,26.6,12.2,55,30.04,10.0,South,16.1,24.2,N/A,,Clear,180,2011-12-03 03:55:00
10:35 PM,26.6,12.2,55,30.02,10.0,South,15.0,24.2,N/A,,Clear,180,2011-12-03 04:35:00
10:55 PM,28.4,14.0,55,30.02,10.0,South,12.7,24.2,N/A,,Clear,170,2011-12-03 04:55:00
11:35 PM,28.4,14.0,55,30.01,10.0,South,15.0,24.2,N/A,,Scattered Clouds,170,2011-12-03 05:35:00
11:55 PM,28.4,15.8,59,30.00,10.0,South,15.0,25.3,N/A,,Overcast,180,2011-12-03 05:55:00